EHI
0 0 0 0 0 0 0 0 0 0 0 0 0 0 0 0 0 0 0 1 3 4 3 2 2 2 1 0 0 0 0 1 2 3 2 2 2 1 0 0 0 0 0
0 0 0 0 0 0 0 0 0 0 0 0 0 0 0 0 0 0 0 0 2 3 2 1 1 1 0 0 0 0 0 1 2 2 1 1 2 2 1 1 0 0 1
0 0 0 0 0 0 0 0 0 0 0 0 0 0 0 0 0 0 0 0 0 1 1 0 0 0 0 0 0 0 0 0 1 1 0 0 1 2 2 2 1 2 3
0 0 0 0 0 0 0 0 0 0 0 0 0 0 0 0 0 0 0 0 0 0 0 0 0 0 0 0 0 0 0 0 0 0 0 0 0 1 1 2 2 2 3
0 0 0 0 0 0 0 0 0 0 0 0 0 0 0 0 0 0 0 0 0 0 0 0 0 0 0 0 0 0 0 0 0 0 0 0 0 0 0 1 1 1 1
0 0 0 0 0 0 0 0 0 0 0 0 0 0 0 0 0 0 0 0 0 0 0 0 0 0 0 0 0 0 0 0 0 0 0 0 0 0 0 0 0 0 0
0 0 0 0 0 0 0 0 0 0 0 0 0 0 0 0 0 0 0 0 0 0 0 0 0 0 0 0 0 0 0 0 0 0 0 0 0 0 0 0 0 0 0
0 0 0 0 0 0 0 0 0 0 0 0 0 0 0 0 0 0 0 0 0 0 0 0 0 0 0 0 0 0 0 0 1 1 1 1 0 0 0 0 0 0 0
0 0 0 0 0 0 0 0 0 0 0 0 0 0 0 0 0 0 0 0 0 0 0 0 0 0 0 0 0 0 0 0 1 2 2 2 0 0 0 0 0 0 0
0 0 0 0 0 0 0 0 0 0 0 0 0 0 0 0 0 0 0 0 0 0 0 0 0 0 0 0 0 0 0 0 0 1 1 1 0 0 0 0 0 0 0
0 0 0 0 0 0 0 0 0 0 0 0 0 0 0 0 0 0 0 0 0 0 0 0 0 0 0 0 0 0 0 0 0 0 0 0 0 0 0 0 0 0 0
0 0 0 0 0 0 0 0 0 0 0 0 0 0 0 0 0 0 0 0 0 0 0 0 0 0 0 0 0 0 0 0 0 0 0 0 0 0 0 0 0 0 0
0 0 0 0 0 0 0 0 0 0 0 0 0 0 0 0 0 0 0 0 0 0 0 0 0 0 0 0 0 0 0 0 0 0 0 0 0 0 0 0 0 0 0
0 0 0 0 0 0 0 0 0 0 0 0 0 0 0 0 0 0 0 0 0 0 0 0 0 0 0 0 0 0 0 0 0 0 0 0 0 0 0 0 0 0 0
0 0 0 0 0 0 0 0 0 0 0 0 0 0 0 0 0 0 0 0 0 0 0 0 0 0 0 0 0 0 0 0 0 0 0 0 0 0 0 0 0 0 0
0 0 0 0 0 0 0 0 0 0 0 0 0 0 0 0 0 0 0 0 0 0 0 0 0 0 0 0 0 0 0 0 0 0 0 0 0 0 0 0 0 0 0
0 0 0 0 0 0 0 0 0 0 0 0 0 0 0 0 0 0 0 0 0 0 0 0 0 0 0 0 0 0 0 0 0 0 0 0 0 0 0 0 0 0 0
0 0 0 0 0 0 0 0 0 0 0 0 0 0 0 0 0 0 0 0 0 0 0 0 0 0 0 0 0 0 0 0 0 0 0 0 0 0 0 0 0 0 0
0 0 0 0 0 0 0 0 0 0 0 0 0 0 0 0 0 0 0 0 0 0 0 0 0 0 0 0 0 0 0 0 0 0 0 0 0 0 0 0 0 0 0
0 0 0 0 0 0 0 0 0 0 0 0 0 0 0 0 0 0 0 0 0 0 0 0 0 0 0 0 0 0 0 0 0 0 0 0 0 0 0 0 0 0 0
0 0 0 0 0 0 0 0 0 0 0 0 0 0 0 0 0 0 0 0 0 0 0 0 0 0 0 0 0 0 0 0 0 0 0 0 0 0 0 0 0 0 0
0 0 0 0 0 0 0 0 0 0 0 0 0 0 0 0 0 0 0 0 0 0 0 0 0 0 0 0 0 0 0 0 0 0 0 0 0 0 0 0 0 0 0
0 0 0 0 0 0 0 0 0 0 0 0 0 0 0 0 0 0 0 0 0 0 0 0 0 0 0 0 0 0 0 0 0 0 0 0 0 0 0 0 0 0 0
0 0 0 0 0 0 0 0 0 0 0 0 0 0 0 0 0 0 0 0 0 0 0 0 0 0 0 0 0 0 0 0 0 0 0 0 0 0 0 0 0 0 0
0 0 0 0 0 0 0 0 0 0 0 0 0 0 0 0 0 0 0 0 0 0 0 0 0 0 0 0 0 0 0 0 0 0 0 0 0 0 0 0 0 0 0
0 0 0 0 0 0 0 0 0 0 0 0 0 0 0 0 0 0 0 0 0 0 0 0 0 0 0 0 0 0 0 0 0 0 0 0 0 0 0 0 0 0 0
Wind_Speed
1 1 1 2 2 2 2 2 3 4 4 4 4 4 4 3 4 3 3 9 10 9 9 8 9 9 9 9 9 9 9 9 9 8 8 7 7 6 6 5 5 4 4
2 2 2 2 2 2 2 3 4 4 3 3 4 4 3 3 4 4 3 5 10 10 10 9 9 9 9 9 9 9 8 9 9 8 8 7 7 7 6 5 6 6 5
3 3 3 3 2 2 3 3 4 3 4 4 4 4 4 3 3 4 3 3 4 9 11 10 10 10 9 9 9 9 9 8 8 8 8 8 7 7 7 7 7 6 6
4 3 3 2 2 3 3 3 3 4 3 3 3 3 3 3 4 4 3 3 3 4 7 11 11 11 11 10 10 10 10 9 8 8 8 8 8 7 7 7 7 7 7
4 4 3 2 3 3 3 3 3 3 3 3 3 3 3 3 3 4 4 4 4 4 4 7 11 11 11 11 11 11 10 10 9 8 8 8 8 7 7 7 7 7 6
4 4 3 3 4 4 3 3 3 3 2 2 4 4 3 3 3 3 3 3 3 4 4 5 4 6 11 11 11 12 11 10 9 8 8 8 8 8 7 7 6 5 5
3 4 3 3 3 3 3 3 3 4 3 2 4 3 4 4 4 3 3 3 4 4 4 4 4 4 4 10 11 11 11 11 9 8 8 8 8 8 7 7 6 5 5
3 3 3 3 3 3 4 3 3 2 2 1 3 3 2 4 4 4 3 3 3 3 4 4 4 4 4 3 7 11 11 11 9 7 8 8 8 8 7 6 5 5 5
3 3 4 3 3 3 3 2 2 3 2 1 1 3 3 2 1 3 3 3 3 3 3 3 4 4 4 4 4 7 11 11 10 8 8 9 9 8 7 7 6 5 5
3 3 3 3 3 3 3 2 2 2 3 1 1 1 2 4 3 1 3 3 3 3 2 3 3 3 3 3 4 8 11 12 12 11 10 9 9 9 8 8 6 6 5
3 3 3 3 3 2 2 3 3 3 2 2 1 1 2 2 2 3 0 2 3 2 2 1 2 2 2 3 2 6 9 11 12 12 12 11 11 10 10 9 7 7 6
2 2 3 3 2 2 2 2 3 4 3 3 2 2 2 2 2 2 2 0 1 2 2 2 1 1 1 2 3 7 8 9 10 11 12 11 11 11 11 10 9 8 7
1 1 1 2 2 2 2 3 3 3 3 3 3 2 2 1 2 2 3 1 0 1 2 2 1 1 1 1 2 5 6 8 8 9 10 10 10 11 11 11 10 9 9
1 1 1 2 2 2 3 3 2 2 2 3 3 2 2 1 2 2 3 3 2 2 2 2 2 1 1 1 1 3 3 6 6 8 8 9 10 10 11 12 12 11 11
2 2 2 2 2 2 3 3 2 2 2 2 2 2 2 1 1 2 2 3 4 2 1 2 1 2 1 0 1 1 1 3 5 5 6 7 8 9 9 10 11 11 11
2 2 2 2 2 2 3 3 2 2 3 2 1 2 2 1 1 2 2 1 2 3 1 2 2 2 1 0 0 0 1 2 3 4 4 5 6 7 7 8 8 8 9
2 2 2 2 2 2 2 3 2 2 3 2 1 2 2 1 2 1 2 2 2 2 2 1 1 1 1 1 1 1 1 1 1 3 2 3 4 4 5 5 6 6 7
2 3 3 3 2 2 2 3 2 2 2 2 1 2 1 1 2 1 2 2 1 2 3 1 1 1 1 1 1 1 1 1 1 2 2 2 2 2 3 3 4 4 5
2 2 3 3 2 2 2 2 2 2 2 1 1 2 1 2 1 1 2 1 1 1 1 2 0 1 1 1 1 2 2 2 1 1 2 2 3 3 3 3 3 3 4
3 3 3 3 3 2 2 2 3 2 2 1 1 1 1 2 2 2 1 1 1 2 1 1 0 1 1 1 1 1 2 2 2 2 3 2 3 4 4 4 4 4 4
3 3 3 2 2 2 2 3 3 3 2 2 1 1 1 2 3 2 2 1 2 2 1 1 0 1 1 1 1 1 1 2 2 1 2 2 2 2 3 4 5 4 4
2 3 3 3 2 2 4 5 4 3 2 2 1 0 1 1 2 3 3 3 3 3 2 1 1 1 2 2 1 1 0 1 3 2 1 2 1 2 3 2 4 5 5
2 3 3 3 3 3 4 5 6 4 3 2 2 1 0 1 1 1 2 3 2 2 2 3 2 2 2 3 2 1 1 2 3 3 0 3 2 3 3 3 5 6 6
3 3 3 3 2 3 5 5 5 3 2 2 2 2 2 1 1 2 2 1 1 1 1 1 2 3 3 2 3 2 2 2 2 2 1 2 2 3 4 3 6 6 6
3 3 3 3 3 3 4 5 5 2 1 1 1 1 2 2 2 2 2 1 1 2 2 1 1 2 3 2 1 1 0 1 2 3 1 1 2 3 3 3 4 7 7
3 3 2 3 4 3 4 5 6 3 2 1 1 1 2 2 2 2 2 2 2 3 2 2 2 3 3 3 3 1 2 1 2 3 2 1 2 2 3 3 3 3 4
Wind_Direction
62 57 29 35 36 58 73 70 71 69 70 71 79 86 77 73 65 48 38 61 65 70 78 78 74 70 64 62 59 53 52 55 60 60 59 58 61 62 59 58 56 54 58
67 60 49 42 45 65 80 87 85 82 74 71 67 72 82 79 70 59 43 48 57 64 68 70 68 65 62 59 57 54 53 56 58 57 56 58 61 60 59 56 56 54 55
69 64 55 44 32 64 76 76 72 69 72 69 62 62 65 67 73 66 53 39 41 57 63 63 63 62 59 57 53 53 54 56 58 58 58 57 57 56 54 56 57 56 56
65 69 61 48 44 62 73 81 77 75 68 67 61 52 56 59 65 68 59 50 44 45 50 60 60 56 54 54 52 52 53 56 58 58 58 55 53 50 50 55 56 57 56
62 72 63 54 61 66 65 86 74 87 87 81 76 54 46 51 52 68 63 56 53 53 46 53 57 55 52 50 48 48 49 49 50 54 55 52 50 48 51 54 52 53 53
63 71 68 56 64 69 58 72 80 70 82 88 83 60 37 40 46 50 56 52 51 59 56 51 42 43 48 49 47 45 45 44 45 49 52 52 49 49 50 53 53 52 51
60 70 71 59 65 76 77 84 91 76 60 74 80 49 22 30 43 39 42 50 47 53 57 50 42 35 32 39 38 41 39 36 39 46 51 50 47 45 45 46 49 51 53
52 72 77 73 72 81 71 68 87 91 59 59 107 95 40 9 11 22 25 49 48 48 57 58 50 43 35 24 25 36 34 29 29 44 52 49 46 43 40 41 43 48 53
59 75 82 84 76 83 87 77 95 113 116 26 87 135 137 176 341 355 14 31 41 48 43 50 51 39 37 28 13 25 34 27 33 51 53 50 45 41 38 36 36 40 49
57 74 83 85 82 81 86 85 89 99 115 96 29 53 128 146 137 42 349 3 30 45 38 49 46 37 32 30 27 35 39 33 36 43 47 45 42 39 35 32 39 45 49
46 70 80 81 83 84 88 86 86 84 96 112 110 88 74 68 94 127 121 340 0 1 19 34 39 31 26 29 24 40 44 40 39 39 38 38 36 35 34 35 42 49 53
26 50 77 78 86 88 93 94 94 92 93 95 91 96 117 120 131 124 141 190 321 321 349 8 19 8 16 25 34 50 49 46 44 42 38 35 34 34 35 37 42 46 49
33 18 67 90 95 104 105 99 89 82 88 94 99 101 107 129 142 133 127 143 103 326 346 349 328 334 10 25 18 46 49 49 46 42 38 37 36 35 35 36 40 42 44
190 174 113 105 108 109 106 104 96 93 89 95 97 102 99 100 121 134 142 137 99 4 359 321 325 331 346 359 19 42 38 45 49 44 40 39 38 39 38 37 40 41 42
175 151 135 110 100 103 105 102 92 94 94 90 98 98 98 86 96 105 125 142 141 135 304 299 315 316 311 282 338 44 36 40 44 45 43 41 40 39 40 39 38 37 36
153 133 126 114 92 85 94 96 90 100 99 82 92 92 83 80 80 91 115 124 130 144 175 269 263 279 291 302 162 71 20 21 29 38 42 43 42 39 39 39 36 33 31
142 142 141 124 106 90 92 98 100 108 105 87 81 99 89 88 83 75 91 98 104 121 139 284 305 317 352 340 344 340 324 333 345 5 20 33 35 32 32 34 32 28 25
142 145 141 131 128 117 109 109 107 108 116 111 106 102 90 92 81 71 88 98 116 135 142 170 316 341 317 293 313 330 331 322 293 329 336 350 6 11 16 16 17 18 17
139 130 131 140 145 138 127 129 123 114 122 135 133 133 148 115 100 93 96 96 100 99 118 144 238 319 321 336 3 348 353 338 318 308 309 314 318 324 333 340 346 348 354
152 152 152 158 156 146 135 133 124 112 100 98 111 128 149 152 157 151 125 132 127 100 95 113 110 341 329 324 35 352 336 331 323 334 339 334 330 323 322 317 318 319 325
169 166 150 147 151 147 148 140 132 122 115 99 73 78 114 122 124 134 127 147 134 117 104 105 90 14 337 345 310 287 302 312 314 320 325 321 325 321 314 311 309 308 310
162 151 154 153 158 171 155 151 143 136 135 130 124 87 57 84 91 98 101 114 129 137 152 149 179 207 257 255 264 267 283 353 313 306 329 302 304 288 284 279 287 290 297
159 161 172 162 175 189 165 155 149 142 144 150 155 155 109 71 109 97 68 62 60 88 145 161 175 216 229 234 216 255 246 229 251 278 324 291 296 280 278 290 289 287 293
167 175 183 179 181 199 176 160 151 139 140 160 179 185 182 209 158 131 107 57 0 328 263 207 192 221 230 229 207 215 224 245 275 287 192 266 290 280 289 287 293 292 295
172 181 180 179 186 219 193 173 151 139 143 199 226 185 180 197 223 157 133 153 315 312 317 296 260 279 295 292 244 109 358 0 303 294 253 220 284 293 288 280 288 298 298
182 182 188 191 191 212 208 192 170 153 165 215 277 268 224 217 230 195 170 176 240 275 304 334 330 322 316 316 311 204 197 215 258 284 270 212 275 315 309 286 284 296 299